EW4210 Weather Reports


Display with metric or nautical units.
time (UTC)temp
F
wind
direction
speed
MPH
gust
MPH
rain 1hr
in
rain 24hr
in
rain mn
in
humidity
%
barometer
mb
20260901023043 85 69 0.0 2.0 0.00 0.00 0.00 67 1014.9
20260901021526 85 69 0.0 2.0 0.00 0.00 0.00 65 1014.8
20260901020009 86 69 0.0 2.0 0.00 0.00 0.00 64 1014.7
20260901014553 87 83 0.0 2.0 0.00 0.00 0.00 62 1014.5
20260901013034 87 96 1.0 3.0 0.00 0.00 0.00 62 1014.2
20260901011510 88 86 0.0 0.0 0.00 0.00 0.00 60 1014.2
20260901010052 88 90 1.0 4.0 0.00 0.00 0.00 59 1014.1
20260901004539 89 95 1.0 4.0 0.00 0.00 0.00 58 1014.1
20260901003024 89 115 1.0 6.0 0.00 0.00 0.00 58 1014.1
20260901001514 90 96 0.0 2.0 0.00 0.00 0.00 57 1014.1
20260901000044 91 105 1.0 4.0 0.00 0.00 0.00 55 1014.0
20260831234534 91 103 1.0 4.0 0.00 0.00 0.00 53 1013.9
20260831233018 91 116 2.0 7.0 0.00 0.00 0.00 52 1014.0
20260831231602 92 115 1.0 3.0 0.00 0.00 0.00 51 1014.1
20260831230058 92 94 3.0 7.0 0.00 0.00 0.00 50 1014.1
20260831224520 93 111 2.0 8.0 0.00 0.00 0.00 50 1014.1
20260831223102 93 104 1.0 6.0 0.00 0.00 0.00 52 1014.2
20260831223001 93 115 2.0 6.0 0.00 0.00 0.00 51 1014.3
20260831221548 93 92 2.0 7.0 0.00 0.00 0.00 52 1014.4
20260831220023 93 87 2.0 4.0 0.00 0.00 0.00 52 1014.3
20260831214505 94 51 2.0 5.0 0.00 0.00 0.00 49 1014.4
20260831213053 95 144 3.0 12.0 0.00 0.00 0.00 47 1014.5
20260831211530 95 85 1.0 4.0 0.00 0.00 0.00 47 1014.6
20260831210009 96 109 1.0 5.0 0.00 0.00 0.00 42 1014.7
20260831204551 96 68 1.0 6.0 0.00 0.00 0.00 41 1014.8
20260831203023 96 74 1.0 7.0 0.00 0.00 0.00 43 1015.0
20260831201505 96 183 0.0 4.0 0.00 0.00 0.00 48 1015.2
20260831200039 95 92 2.0 4.0 0.00 0.00 0.00 46 1015.3
20260831194539 94 107 3.0 10.0 0.00 0.00 0.00 47 1015.6
20260831193057 94 63 1.0 7.0 0.00 0.00 0.00 48 1015.7
20260831193005 94 81 1.0 7.0 0.00 0.00 0.00 48 1015.6
20260831191545 95 90 3.0 7.0 0.00 0.00 0.00 46 1015.8
20260831190027 94 71 0.0 3.0 0.00 0.00 0.00 48 1016.1
20260831184509 94 82 0.0 6.0 0.00 0.00 0.00 48 1016.3
20260831183054 95 128 1.0 3.0 0.00 0.00 0.00 49 1016.4
20260831181535 94 138 0.0 8.0 0.00 0.00 0.00 47 1016.7
20260831180022 95 126 2.0 6.0 0.00 0.00 0.00 48 1016.8
20260831174600 94 148 1.0 3.0 0.00 0.00 0.00 48 1016.9
20260831173036 94 100 1.0 4.0 0.00 0.00 0.00 50 1017.1
20260831171531 94 97 2.0 6.0 0.00 0.00 0.00 55 1017.2
20260831170128 93 96 3.0 8.0 0.00 0.00 0.00 51 1017.3
20260831164539 92 216 1.0 3.0 0.00 0.00 0.00 57 1017.4
20260831163018 91 93 1.0 3.0 0.00 0.00 0.00 57 1017.5
20260831161602 90 89 1.0 4.0 0.00 0.00 0.00 59 1017.6
20260831160035 89 288 1.0 3.0 0.00 0.00 0.00 59 1017.5
20260831154513 90 311 1.0 3.0 0.00 0.00 0.00 59 1017.7
20260831153052 89 107 1.0 3.0 0.00 0.00 0.00 64 1017.7
20260831151531 88 94 1.0 6.0 0.00 0.00 0.00 63 1017.7
20260831150010 87 159 0.0 2.0 0.00 0.00 0.00 67 1017.6
20260831144544 85 115 0.0 4.0 0.00 0.00 0.00 68 1017.5
20260831143024 84 103 1.0 4.0 0.00 0.00 0.00 71 1017.4
20260831141510 84 100 1.0 3.0 0.00 0.00 0.00 70 1017.4
20260831140044 83 90 0.0 3.0 0.00 0.00 0.00 70 1017.2
20260831134525 81 61 0.0 3.0 0.00 0.00 0.00 72 1017.2
20260831133100 78 138 0.0 2.0 0.00 0.00 0.00 79 1017.1
20260831131537 74 142 0.0 0.0 0.00 0.00 0.00 87 1017.0
20260831130020 72 142 0.0 0.0 0.00 0.00 0.00 90 1016.8
20260831124508 70 142 0.0 2.0 0.00 0.00 0.00 90 1016.7
20260831123045 69 142 0.0 0.0 0.00 0.00 0.00 91 1016.6
20260831121522 69 142 0.0 0.0 0.00 0.00 0.00 91 1016.6
20260831120054 69 142 0.0 0.0 0.00 0.00 0.00 90 1016.3
20260831114533 69 331 0.0 0.0 0.00 0.00 0.00 90 1016.1
20260831113016 69 140 0.0 0.0 0.00 0.00 0.00 90 1016.0
20260831111600 69 140 0.0 0.0 0.00 0.00 0.00 90 1016.0
20260831110040 69 140 0.0 0.0 0.00 0.00 0.00 88 1015.9
20260831104529 70 140 0.0 0.0 0.00 0.00 0.00 87 1015.7
20260831103107 70 140 0.0 0.0 0.00 0.00 0.00 86 1015.6
20260831101539 70 140 0.0 0.0 0.00 0.00 0.00 85 1015.5
20260831100034 71 140 0.0 0.0 0.00 0.00 0.00 85 1015.5
20260831094505 72 140 0.0 0.0 0.00 0.00 0.00 84 1015.4
20260831093045 72 140 0.0 0.0 0.00 0.00 0.00 82 1015.2
20260831091521 72 140 0.0 0.0 0.00 0.00 0.00 82 1015.2
20260831090108 72 140 0.0 0.0 0.00 0.00 0.00 83 1015.3
20260831090003 72 140 0.0 0.0 0.00 0.00 0.00 82 1015.2
20260831084543 72 140 0.0 0.0 0.00 0.00 0.00 81 1015.2
20260831083024 72 140 0.0 0.0 0.00 0.00 0.00 80 1015.0
20260831081557 73 140 0.0 0.0 0.00 0.00 0.00 79 1015.1
20260831080053 73 140 0.0 0.0 0.00 0.00 0.00 79 1015.0
20260831074515 74 140 0.0 0.0 0.00 0.00 0.00 78 1015.0
20260831073056 74 140 0.0 0.0 0.00 0.00 0.00 77 1015.1
20260831071537 75 140 0.0 0.0 0.00 0.00 0.00 75 1015.0
20260831070025 75 140 0.0 0.0 0.00 0.00 0.00 75 1015.2
20260831064506 75 140 0.0 0.0 0.00 0.00 0.00 74 1015.0
20260831063047 75 140 0.0 0.0 0.00 0.00 0.00 74 1015.2
20260831061530 75 140 0.0 0.0 0.00 0.00 0.00 73 1015.2
20260831060011 75 140 0.0 0.0 0.00 0.00 0.00 73 1015.2
20260831054553 76 140 0.0 0.0 0.00 0.00 0.00 71 1015.2
20260831053038 76 140 0.0 0.0 0.00 0.00 0.00 72 1015.3
20260831051521 77 140 0.0 0.0 0.00 0.00 0.00 72 1015.2
20260831050059 77 140 0.0 0.0 0.00 0.00 0.00 71 1015.2
20260831044539 77 140 0.0 0.0 0.00 0.00 0.00 67 1015.1
20260831043023 78 140 0.0 0.0 0.00 0.00 0.00 67 1015.1
20260831041512 80 140 0.0 2.0 0.00 0.00 0.00 66 1015.2
20260831040055 80 85 1.0 3.0 0.00 0.00 0.00 61 1015.2
20260831034535 81 121 0.0 3.0 0.00 0.00 0.00 60 1015.2
20260831033021 82 66 0.0 2.0 0.00 0.00 0.00 61 1015.0
20260831031608 82 89 1.0 3.0 0.00 0.00 0.00 59 1015.0
20260831030037 82 69 0.0 4.0 0.00 0.00 0.00 58 1014.8
20260831024518 82 85 1.0 3.0 0.00 0.00 0.00 61 1014.8